DIAMANT DEB, 2684

Orbit data source: Space-Track

DIAMANT DEB, 2684 is space debris in LEO originally from a launch on Wed, 15 Feb 1967 UTC launched from the Hamma Guira Space Track Range (HGSTR). Debris objects in space refer to the collection of defunct objects orbiting the Earth. Examples of debris include non-operational satellites, rocket bodies, and fragments generated from explosions, collisions, or faulty payload assembly.

Loading next visibility...
Identifier
2684, 1967-014C
Orbit
LEO
Country
Flag of FRFR
Related business
Manufacturer
Unknown
Mission
Spacecraft
Bus & Motor
Unknown
Mass
Unknown
Launch date (UTC)
1967-02-15 (59 years ago)
Launch vehicle
Unknown
Launch site
Hamma Guira Space Track Range (HGSTR)
Object type
Payload
Rocket body
Debris
Shape & HBR
Unknown shape, 0.1 m
Radar Cross Section
Small (<0.1 m²)

Expand to show TLE details & history
Last TLE update: 1 day ago

TLE from 1 day ago
0 DIAMANT DEB
1 02684U 67014C   26124.70289806  .00004440  00000-0  10645-2 0  9993
2 02684  39.9552 235.8516 0437776 148.6254 214.1422 14.08789705934842
Epoch: 2026-05-04T16:52Z
TLE epoch observation values (Epoch: 2026-05-04T16:52:10.392Z)
Latitude
-0.00005°
Longitude
120.21994°
Altitude
1,129.471 km
Speed
7.155 km/s
True Right ascension
15h 43m 24s
True Declination
0° 00' 00"
Sunlit
Object was in full shadow at epoch
Visualization orbit readout
Latitude
Unknown
Longitude
Unknown
Altitude
Unknown
Speed
Unknown
Apparent Right ascension
Unknown
Apparent Declination
Unknown
Sunlit
N/A
Visualization observer readout
Local Sidereal Time
01:24:45
Azimuth
Unknown
Elevation
Unknown
Doppler factor
Unknown
Orbital elements
Apogee altitude
1,182.972 km
Perigee altitude
548.723 km
Semi-major axis
7,243.984 km
Eccentricity
0.04378
Inclination
39.9552°
RAAN
235.8516°
Arg. of periapsis
148.6254°
True anomaly
211.44985°
Mean anomaly
214.1422°
Eccentric anomaly
212.78404°
Mean motion
3.52028 °/min
Orbital period
102.26 mins
BSTAR
0.0010645
Loading maneuver chart data...
Computing Atmospheric mass density...
Loading historical data...
Loading historical data...
Loading historical data...
Loading historical data...
Loading historical data...
Loading historical data...
Loading historical data...

Documentation

Showing up to 5 results
|